Погода в Фонтанах

Россия / Республика Крым     44°53′47″N   34°04′12″E
темп.,
°C
ветер,
м/с
пор.,
м/с
влажн.,
%
обл.,
%
осадки,
мм/ч
давл.,
гПа
погр.,
м
14 мая, пт
пт1400:00+11ююз225657 0.0 101021
03:00+10зюз226578 0.0 101017
06:00+11ююв2261100 0.0 100917
09:00+19юз353946 0.0 1010331
12:00+24зюз57376 0.0 10111122
15:00+23зюз6746100 0.0 1011881
18:00+20зюз45560 0.0 1012367
21:00+13юз22800 0.0 101312
15 мая, сб
сб1500:00+13юз22740 0.0 101312
03:00+12ююв227736 0.0 101418
06:00+13ююв227157 0.0 101416
09:00+19юз23556 0.0 1014515
12:00+23зюз554751 0.0 10141457
15:00+23з4544100 0.0 10131290
18:00+20з3359100 0.0 1013409
21:00+14зюз018467 0.0 101311
16 мая, вс
вс1600:00+13в2282100 0.0 101210
03:00+14всв347899 0.0 101156
06:00+14всв4775100 0.0 1010128
09:00+20всв7115369 0.0 1009486
12:00+23св7844100 0.1 1009905
15:00+24св784497 0.1 10071238
18:00+21св5962100 0.1 1005456
21:00+16в379297 1.3 1005127
17 мая, пн
пн1700:00+15юв119460 9.3 100411
03:00+14зюз229795 10.1 100422
06:00+14юз249799 0.0 1005142
09:00+16юз459297 0.0 1007388
12:00+20з676152 0.1 1008915
15:00+20зюз6756100 0.1 1009872
18:00+18зюз57641 0.0 1009600
21:00+13ююз34842 0.0 101064
18 мая, вт
вт1800:00+13ююз35802 0.0 101189
03:00+12ю34860 0.0 101160
06:00+13ююв34834 0.0 101164
09:00+20юз466199 0.0 1012616
12:00+23зюз564645 0.0 10121812
15:00+21зюз685852 0.0 1012890
18:00+22юз57595 0.0 1011775
21:00+17юв337438 0.0 101237